Weather History for Albert Lea, MN

Change the Weather History Date:

Sunday, December 1, 2013

  Actual Average Record
Temperature  
Mean Temperature 29 °F -  
Max Temperature 37 °F 34 °F 66 °F (1998)
Min Temperature 21 °F 21 °F 6 °F (2005)
Degree Days  
Heating Degree Days 36    
Moisture  
Dew Point 24 °F    
Average Humidity 80    
Maximum Humidity 93    
Minimum Humidity 65    
Precipitation  
Precipitation 0.00 in - - ()
Sea Level Pressure  
Sea Level Pressure 30.06 in    
Wind  
Wind Speed 2 mph (SE)    
Max Wind Speed 5 mph    
Max Gust Speed -    
Visibility 8 miles    
Events      
Averages and records for this station are not official NWS values.
T = Trace of Precipitation, MM = Missing Value Source: NWS Daily Summary

Daily Weather History Graph

Daily Weather History Graph

Search for Another Location

Airport:

Trip Planner

Search our weather history database for the weather conditions in past years. The results will help you decide how hot, cold, wet, or windy it might be!

Date:

Astronomy

Dec. 01, 2013 Rise Set
Actual Time 7:27 AM CST 4:37 PM CST
Civil Twilight 6:55 AM CST 5:09 PM CST
Nautical Twilight 6:19 AM CST 5:45 PM CST
Astronomical Twilight 5:44 AM CST 6:20 PM CST
Moon 5:43 AM CST (12/1) 3:50 PM CST (12/1)
Length of Visible Light 10h 14m
Length of Day
9h 10m
Waning Crescent, 2% of the Moon is Illuminated
Dec 1
Waning Crescent
Dec 2
New
Dec 9
First Quarter
Dec 17
Full
Dec 25
Last Quarter

Hourly Weather History & Observations

Time (CST) Temp. Windchill Dew Point Humidity Pressure Visibility Wind Dir Wind Speed Gust Speed Precip Events Conditions
12:13 AM 30.2 °F 26.7 °F 24.8 °F 80% 30.13 in 10.0 mi NW 3.5 mph - N/A   Clear
12:33 AM 30.2 °F - 24.8 °F 80% 30.13 in 10.0 mi Calm Calm - N/A   Clear
12:52 AM 28.4 °F - 24.8 °F 86% 30.13 in 10.0 mi Calm Calm - N/A   Scattered Clouds
1:13 AM 28.4 °F 24.6 °F 23.0 °F 80% 30.13 in 10.0 mi NW 3.5 mph - N/A   Mostly Cloudy
1:33 AM 28.4 °F - 23.0 °F 80% 30.13 in 10.0 mi Calm Calm - N/A   Mostly Cloudy
1:52 AM 28.4 °F - 23.0 °F 80% 30.13 in 10.0 mi Calm Calm - N/A   Mostly Cloudy
2:13 AM 28.4 °F - 24.8 °F 86% 30.13 in 10.0 mi Calm Calm - N/A   Mostly Cloudy
2:33 AM 28.4 °F 24.6 °F 24.8 °F 86% 30.13 in 10.0 mi NW 3.5 mph - N/A   Clear
2:52 AM 28.4 °F - 23.0 °F 80% 30.13 in 10.0 mi Calm Calm - N/A   Clear
3:13 AM 26.6 °F - 23.0 °F 86% 30.13 in 10.0 mi Calm Calm - N/A   Clear
3:33 AM 26.6 °F 22.6 °F 21.2 °F 80% 30.13 in 10.0 mi NNW 3.5 mph - N/A   Clear
3:52 AM 24.8 °F 19.1 °F 21.2 °F 86% 30.12 in 7.0 mi NNW 4.6 mph - N/A   Clear
4:13 AM 23.0 °F - 21.2 °F 93% 30.13 in 7.0 mi Calm Calm - N/A   Scattered Clouds
4:33 AM 24.8 °F 20.5 °F 21.2 °F 86% 30.13 in 7.0 mi NW 3.5 mph - N/A   Scattered Clouds
4:52 AM 24.8 °F - 21.2 °F 86% 30.14 in 7.0 mi Calm Calm - N/A   Clear
5:13 AM 21.2 °F - 19.4 °F 93% 30.14 in 7.0 mi Calm Calm - N/A   Scattered Clouds
5:32 AM 23.0 °F - 21.2 °F 93% 30.14 in 7.0 mi Calm Calm - N/A   Scattered Clouds
5:53 AM 21.2 °F - 19.4 °F 93% 30.14 in 7.0 mi Calm Calm - N/A   Mostly Cloudy
6:13 AM 21.2 °F - 19.4 °F 93% 30.13 in 7.0 mi Calm Calm - N/A   Overcast
6:32 AM 21.2 °F 14.9 °F 19.4 °F 93% 30.14 in 7.0 mi North 4.6 mph - N/A   Mostly Cloudy
6:53 AM 21.2 °F - 19.4 °F 93% 30.14 in 7.0 mi Calm Calm - N/A   Scattered Clouds
7:13 AM 23.0 °F 17.0 °F 21.2 °F 93% 30.15 in 7.0 mi NW 4.6 mph - N/A   Scattered Clouds
7:32 AM 23.0 °F - 21.2 °F 93% 30.15 in 7.0 mi Calm Calm - N/A   Overcast
7:53 AM 24.8 °F - 21.2 °F 86% 30.16 in 5.0 mi Calm Calm - N/A   Overcast
8:13 AM 24.8 °F - 23.0 °F 93% 30.14 in 5.0 mi Calm Calm - N/A   Overcast
8:32 AM 24.8 °F - 23.0 °F 93% 30.15 in 5.0 mi Calm Calm - N/A   Scattered Clouds
8:53 AM 26.6 °F - 24.8 °F 93% 30.14 in 5.0 mi Calm Calm - N/A   Scattered Clouds
9:13 AM 28.4 °F 24.6 °F 24.8 °F 86% 30.14 in 7.0 mi East 3.5 mph - N/A   Mostly Cloudy
9:32 AM 30.2 °F 26.7 °F 24.8 °F 80% 30.14 in 7.0 mi ENE 3.5 mph - N/A   Overcast
9:53 AM 30.2 °F 26.7 °F 24.8 °F 80% 30.14 in 7.0 mi East 3.5 mph - N/A   Overcast
10:12 AM 30.2 °F - 24.8 °F 80% 30.15 in 7.0 mi Calm Calm - N/A   Overcast
10:32 AM 32.0 °F - 24.8 °F 75% 30.15 in 7.0 mi Calm Calm - N/A   Overcast
10:53 AM 33.8 °F 30.8 °F 24.8 °F 70% 30.13 in 7.0 mi East 3.5 mph - N/A   Overcast
11:12 AM 33.8 °F - 26.6 °F 75% 30.13 in 7.0 mi Calm Calm - N/A   Overcast
11:32 AM 35.6 °F 32.8 °F 26.6 °F 70% 30.11 in 7.0 mi ESE 3.5 mph - N/A   Overcast
11:53 AM 35.6 °F - 26.6 °F 70% 30.11 in 7.0 mi Calm Calm - N/A   Overcast
12:12 PM 35.6 °F - 24.8 °F 65% 30.09 in 7.0 mi Calm Calm - N/A   Mostly Cloudy
12:33 PM 35.6 °F - 26.6 °F 70% 30.09 in 7.0 mi Calm Calm - N/A   Mostly Cloudy
12:53 PM 37.4 °F - 26.6 °F 65% 30.07 in 10.0 mi Calm Calm - N/A   Mostly Cloudy
1:12 PM 37.4 °F 34.9 °F 26.6 °F 65% 30.07 in 7.0 mi SW 3.5 mph - N/A   Mostly Cloudy
1:32 PM 37.4 °F - 26.6 °F 65% 30.06 in 7.0 mi Calm Calm - N/A   Scattered Clouds
1:53 PM 37.4 °F - 26.6 °F 65% 30.05 in 10.0 mi Calm Calm - N/A   Scattered Clouds
2:12 PM 37.4 °F - 26.6 °F 65% 30.05 in 10.0 mi Calm Calm - N/A   Mostly Cloudy
2:33 PM 37.4 °F - 26.6 °F 65% 30.03 in 10.0 mi Calm Calm - N/A   Mostly Cloudy
2:53 PM 37.4 °F - 26.6 °F 65% 30.03 in 7.0 mi Calm Calm - N/A   Overcast
3:12 PM 37.4 °F - 26.6 °F 65% 30.03 in 10.0 mi Calm Calm - N/A   Overcast
3:33 PM 37.4 °F - 26.6 °F 65% 30.02 in 10.0 mi Calm Calm - N/A   Mostly Cloudy
3:53 PM 35.6 °F 32.8 °F 26.6 °F 70% 30.01 in 7.0 mi South 3.5 mph - N/A   Scattered Clouds
4:12 PM 35.6 °F - 24.8 °F 65% 30.01 in 7.0 mi Calm Calm - N/A   Scattered Clouds
4:33 PM 35.6 °F - 24.8 °F 65% 30.01 in 10.0 mi Calm Calm - N/A   Overcast
4:52 PM 35.6 °F - 24.8 °F 65% 30.02 in 10.0 mi Calm Calm - N/A   Overcast
5:12 PM 35.6 °F - 24.8 °F 65% 30.02 in 10.0 mi Calm Calm - N/A   Overcast
5:33 PM 33.8 °F - 24.8 °F 70% 30.01 in 10.0 mi Calm Calm - N/A   Scattered Clouds
5:53 PM 32.0 °F 28.7 °F 24.8 °F 75% 30.00 in 7.0 mi SE 3.5 mph - N/A   Scattered Clouds
6:12 PM 33.8 °F - 26.6 °F 75% 30.00 in 7.0 mi Calm Calm - N/A   Mostly Cloudy
6:33 PM 33.8 °F - 26.6 °F 75% 29.99 in 7.0 mi Calm Calm - N/A   Overcast
6:52 PM 33.8 °F 30.8 °F 26.6 °F 75% 29.98 in 7.0 mi SSE 3.5 mph - N/A   Mostly Cloudy
7:12 PM 32.0 °F - 26.6 °F 80% 29.98 in 7.0 mi Calm Calm - N/A   Scattered Clouds
7:33 PM 32.0 °F - 24.8 °F 75% 29.97 in 7.0 mi Calm Calm - N/A   Scattered Clouds
7:52 PM 30.2 °F 25.4 °F 24.8 °F 80% 29.96 in 7.0 mi SE 4.6 mph - N/A   Scattered Clouds
8:12 PM 28.4 °F 23.3 °F 24.8 °F 86% 29.95 in 7.0 mi ESE 4.6 mph - N/A   Clear
8:33 PM 28.4 °F 23.3 °F 24.8 °F 86% 29.94 in 7.0 mi SE 4.6 mph - N/A   Clear
8:52 PM 28.4 °F 24.6 °F 24.8 °F 86% 29.94 in 7.0 mi SSE 3.5 mph - N/A   Clear
9:12 PM 28.4 °F 23.3 °F 24.8 °F 86% 29.93 in 7.0 mi SSE 4.6 mph - N/A   Clear
9:33 PM 28.4 °F 23.3 °F 24.8 °F 86% 29.93 in 7.0 mi SSE 4.6 mph - N/A   Clear
9:52 PM 28.4 °F 23.3 °F 24.8 °F 86% 29.93 in 7.0 mi SSE 4.6 mph - N/A   Clear
10:13 PM 26.6 °F 21.2 °F 24.8 °F 93% 29.92 in 7.0 mi SSE 4.6 mph - N/A   Clear
10:32 PM 28.4 °F - 24.8 °F 86% 29.92 in 7.0 mi Calm Calm - N/A   Clear
10:52 PM 28.4 °F - 24.8 °F 86% 29.91 in 7.0 mi Calm Calm - N/A   Clear
11:13 PM 28.4 °F 24.6 °F 24.8 °F 86% 29.91 in 7.0 mi SE 3.5 mph - N/A   Scattered Clouds
11:32 PM 26.6 °F 21.2 °F 23.0 °F 86% 29.90 in 7.0 mi SE 4.6 mph - N/A   Clear
11:52 PM 26.6 °F 22.6 °F 23.0 °F 86% 29.89 in 7.0 mi SSE 3.5 mph - N/A   Clear